Regional Weather Roundup
Issued by NWS

Home | Current Version | Previous Version | Text Only | Print | Product List | Glossary Off
Versions: 1 2 3 4 5 6 7 8 9 10 11 12 13 14 15 16 17 18 19 20 21 22 23 24 25 26 27 28 29 30 31 32 33 34 35 36 37 38 39 40 41 42 43 44 45 46 47 48 49 50

000
ASUS43 KBIS 272110
RWRND

NORTH DAKOTA REGIONAL WEATHER ROUNDUP
NATIONAL WEATHER SERVICE BISMARCK ND
400 PM CDT FRI MAY 27 2016

NOTE: "FAIR" INDICATES FEW OR NO CLOUDS BELOW 12,000 FEET WITH NO
SIGNIFICANT WEATHER AND/OR OBSTRUCTIONS TO VISIBILITY.


NDZ001>003-009>011-017-272200-
NORTHWEST NORTH DAKOTA

CITY           SKY/WX    TMP DP  RH WIND       PRES   REMARKS
WILLISTON      CLOUDY    66  49  54 E7        29.83F
MINOT          MOSUNNY   71  52  50 VRB6      29.80F
MINOT AFB      PTSUNNY   67  54  62 VRB3      29.79F
$$

NDZ018>021-031>035-040>046-272200-
SOUTHWEST NORTH DAKOTA

CITY           SKY/WX    TMP DP  RH WIND       PRES   REMARKS
BISMARCK       CLOUDY    68  48  48 CALM      29.81F
DICKINSON      SUNNY     68  43  40 N9        29.81F
GARRISON         N/A     66  51  58 SW6       29.82S
HETTINGER ARPT CLOUDY    67  46  47 NE6       29.84F
$$

NDZ004>008-012>016-024-026-027-054-272200-
NORTHEAST NORTH DAKOTA

CITY           SKY/WX    TMP DP  RH WIND       PRES   REMARKS
GRAND FORKS    PTSUNNY   75  55  49 VRB6      29.76F
GRND FRKS AFB  MOSUNNY   72  51  47 VRB1      29.78S
DEVILS LAKE    MOSUNNY   68  53  58 W7        29.81F
$$

NDZ022-023-025-028>030-036>039-047>053-272200-
SOUTHEAST NORTH DAKOTA

CITY           SKY/WX    TMP DP  RH WIND       PRES   REMARKS
FARGO          CLOUDY    69  58  67 SE8       29.74R
JAMESTOWN      SUNNY     71  49  45 CALM      29.78F
$$





USA.gov is the U.S. government's official web portal to all federal, state and local government web resources and services.